Dewpoint
75 75 75 74 74 74 74 74 74 74 74 71 71 74 73 75 76 74 75 76 77 76 76 77 77 76 76 76 76 75 75 74 73 71 72 71 69 68 66 67 68 67
75 76 75 75 75 75 74 74 75 74 74 74 72 72 75 75 76 75 76 76 77 76 77 77 77 77 77 76 76 75 74 74 73 71 71 72 70 69 66 68 67 68
76 76 75 75 73 74 73 74 75 75 73 74 74 74 74 76 76 77 77 77 77 76 77 77 77 77 77 76 76 75 74 75 74 71 72 72 70 69 68 66 67 68
76 76 75 74 74 74 75 74 75 75 74 74 74 73 73 74 76 77 77 77 77 77 76 77 76 75 76 76 76 75 75 75 75 74 72 72 72 70 68 67 67 67
76 76 75 75 75 75 75 75 74 74 74 73 74 75 75 76 77 77 77 77 78 77 76 76 77 76 76 76 76 75 74 74 75 74 72 72 72 71 69 67 67 67
76 77 77 76 76 75 74 75 74 74 74 73 74 74 74 75 76 76 76 76 76 75 74 75 76 76 75 76 76 76 75 74 73 73 73 73 72 71 69 68 68 68
76 76 76 75 75 75 75 75 75 75 74 74 75 74 74 74 75 76 76 76 75 76 74 75 77 76 76 77 76 76 76 75 74 74 73 73 73 72 71 70 69 68
75 75 76 76 75 75 75 75 75 75 75 76 74 75 75 74 76 75 76 75 75 76 76 75 77 78 76 76 77 76 76 75 75 74 74 74 73 73 72 70 71 69
75 75 76 76 75 75 73 73 74 75 76 75 74 73 75 75 75 75 76 77 76 76 77 77 77 77 77 76 76 77 76 75 74 74 73 73 72 73 73 72 71 70
75 75 74 73 73 73 73 73 72 74 75 75 75 73 74 76 75 76 76 77 76 77 77 77 77 77 77 76 77 76 76 76 76 75 74 73 73 73 73 72 71 70
75 74 74 74 73 72 72 72 72 71 73 74 74 73 72 75 76 76 76 77 76 76 77 77 77 77 77 76 76 76 76 75 75 76 75 75 74 74 73 73 72 71
75 75 74 73 72 71 71 71 71 72 71 73 73 73 73 72 75 75 76 77 77 77 77 77 78 77 77 77 75 76 76 75 75 75 75 75 74 74 73 73 72 72
74 74 74 72 73 72 71 71 70 70 70 71 72 73 72 71 71 75 75 76 77 77 76 77 77 77 77 77 76 76 76 76 74 74 74 74 74 73 72 72 72 72
74 75 74 74 73 74 74 72 71 72 72 72 72 73 71 71 70 72 74 75 76 76 76 77 77 77 77 78 77 76 75 76 74 74 74 74 74 74 72 72 72 72
75 75 75 75 74 75 74 74 73 73 73 73 73 72 72 71 71 70 73 75 75 76 76 76 75 76 77 77 76 76 76 75 75 74 74 74 74 72 72 72 71 71
75 76 76 76 75 74 75 74 73 73 72 73 73 72 73 74 73 72 71 73 75 76 76 76 75 76 73 67 69 75 75 75 75 75 74 74 74 73 71 71 71 70
76 76 76 76 76 75 75 75 74 74 74 74 74 74 74 75 74 73 72 72 74 74 75 75 75 75 67 65 65 67 73 75 75 75 75 74 73 74 73 71 71 71
75 76 76 76 76 75 75 76 75 75 75 75 74 74 75 74 74 74 74 72 72 73 74 75 75 69 64 64 64 64 67 75 75 74 74 74 73 73 73 72 71 71
76 76 76 76 76 76 75 76 76 75 75 74 74 75 75 75 75 74 74 74 73 74 74 74 74 67 63 62 63 63 64 69 73 74 73 73 73 73 73 73 73 72
76 76 76 76 76 76 76 76 76 75 74 73 74 75 75 75 75 75 75 75 74 74 75 74 75 66 62 61 61 62 63 66 73 73 73 73 73 73 72 73 73 73
75 75 75 75 76 76 76 75 75 75 75 73 73 74 75 75 75 75 75 75 74 73 74 74 74 63 60 59 60 60 61 63 73 72 73 74 73 73 73 73 73 73
74 75 74 75 75 75 75 75 75 75 75 75 74 73 74 74 75 75 74 74 75 74 73 74 73 61 59 59 58 59 60 69 73 73 72 73 73 74 73 74 73 73
73 74 74 74 74 74 75 74 75 75 75 75 74 73 73 73 74 74 75 74 74 75 74 74 74 66 58 57 57 58 60 71 73 73 73 73 73 73 72 72 72 73
74 74 74 74 74 74 74 74 74 75 75 75 74 73 72 72 73 74 75 75 73 74 73 74 74 66 55 56 56 56 62 72 72 72 73 73 73 73 72 72 72 69
74 74 74 74 74 73 73 74 74 74 74 75 74 74 73 73 73 73 74 75 74 73 69 72 73 65 55 56 56 56 63 72 72 72 72 72 73 72 72 71 72 70
73 74 75 73 74 74 74 74 75 73 73 73 74 73 73 72 72 73 74 74 73 73 72 73 73 73 65 55 55 55 58 72 72 71 71 71 72 71 70 71 72 72